Flag for U.S.A. Weather past 2 weeks in Laredo, Texas, U.S.A.

Now
70 °F

Overcast.


Feels Like: 70 °F
Forecast: 64 / 83 °F
Wind: 12 mph from Southeast

Location: Laredo International Airport

Current Time: Mar 31, 2015 at 4:04:07 AM

Latest Report: Mar 31, 2015 at 2:56 AM


Visibility: 10 mi

Pressure: 30.01 "Hg

Humidity: 81%

Dew point: 64 °F

Location of LaredoLocation

Historic Weather in Laredo — Graph

°F

Laredo temperature yesterday

Maximum temperature yesterday: 88 °F (at 2:56 PM)
Minimum temperature yesterday: 65 °F (at 4:56 AM)
Average temperature yesterday: 75 °F

Past Weeks' High & Low Weather Summary

 TemperatureHumidityPressure
High88 °F (Mar 29, 3:56 PM)100% (Mar 17, 10:03 AM)30.26 "Hg (Mar 17, 10:03 AM)
Low48 °F (Mar 27, 6:56 AM)19% (Mar 28, 3:56 PM)29.76 "Hg (Mar 26, 12:56 AM)
Average69 °F76%30.03 "Hg
* Reported Mar 16 2:56 AM — Mar 31 2:56 AM, Laredo, Weather by CustomWeather, © 2015

Note: Actual official high and low records may vary slightly from our data, if they occured in-between our weather recording intervals... More about our weather records

Advertising

Laredo weather history for previous 24 hours

 ConditionsComfort  
Time TempWeatherWind HumidityBarometerVisibility
2:56 AM
Tue, Mar 31
70 °FOvercast.12 mph81%30.01 "Hg10 mi
1:56 AM70 °FPassing clouds.14 mph81%30.02 "Hg10 mi
12:56 AM71 °FClear.10 mph79%30.03 "Hg10 mi
11:56 PM
Mon, Mar 30
73 °FClear.15 mph74%30.04 "Hg10 mi
10:56 PM75 °FClear.14 mph69%30.04 "Hg10 mi
9:56 PM77 °FClear.12 mph64%30.03 "Hg10 mi
8:56 PM79 °FClear.13 mph58%30.02 "Hg10 mi
7:56 PM81 °FSunny.12 mph54%30.01 "Hg10 mi
6:56 PM83 °FSunny.14 mph53%29.99 "Hg10 mi
5:56 PM85 °FSunny.10 mph45%30.00 "Hg10 mi
4:56 PM88 °FSunny.13 mph42%30.00 "Hg10 mi
3:56 PM88 °FPassing clouds.9 mph40%30.02 "Hg10 mi
2:56 PM88 °FSunny.14 mph43%30.06 "Hg10 mi
1:56 PM85 °FPassing clouds.10 mph46%30.09 "Hg10 mi
12:56 PM82 °FSunny.6 mph53%30.12 "Hg10 mi
11:56 AM79 °FSunny.9 mph60%30.13 "Hg10 mi
10:56 AM75 °FSunny.7 mph69%30.12 "Hg10 mi
9:56 AM72 °FScattered clouds.12 mph76%30.11 "Hg10 mi
8:56 AM67 °FPartly sunny.10 mph90%30.09 "Hg10 mi
7:56 AM65 °FLow clouds.8 mph97%30.07 "Hg10 mi
6:56 AM65 °FLow clouds.8 mph97%30.05 "Hg10 mi
5:56 AM65 °FPassing clouds.8 mph94%30.03 "Hg10 mi
4:56 AM65 °FClear.9 mph94%30.01 "Hg10 mi
Weather by CustomWeather, © 2015

See weather overviewHow to use our weather pages